This is the latest recevied weather packets stored in our database for station/object N9XRG. If no packets are shown the sender has not sent any weather packets the latest 10 day(s).
| Time | Temp. | Humidity | Pressure | Rain* | Wind** | Luminosity | Snow |
|---|---|---|---|---|---|---|---|
| 1777498108 | 15° C | 61% | 1011.3 hPa | 0 mm | - | 156 W/m² | - |
| 1777497806 | 15° C | 64% | 1011.2 hPa | 0 mm | - | 231 W/m² | - |
| 1777497502 | 14.44° C | 65% | 1011 hPa | 0 mm | - | 259 W/m² | - |
| 1777497198 | 13.89° C | 65% | 1011.4 hPa | 0 mm | - | 279 W/m² | - |
| 1777496895 | 13.89° C | 63% | 1011.5 hPa | 0 mm | - | 215 W/m² | - |
| 1777496592 | 14.44° C | 63% | 1011 hPa | 0 mm | - | 212 W/m² | - |
| 1777496288 | 14.44° C | 61% | 1011.3 hPa | 0 mm | - | 263 W/m² | - |
| 1777495984 | 14.44° C | 65% | 1011.2 hPa | 0 mm | - | 314 W/m² | - |
| 1777495680 | 14.44° C | 66% | 1011.1 hPa | 0 mm | - | 223 W/m² | - |
| 1777495376 | 14.44° C | 64% | 1011.1 hPa | 0 mm | - | 164 W/m² | - |
| 1777495073 | 14.44° C | 63% | 1011 hPa | 0 mm | - | 159 W/m² | - |
| 1777494771 | 14.44° C | 64% | 1010.9 hPa | 0 mm | - | 162 W/m² | - |
| 1777494468 | 14.44° C | 62% | 1011.3 hPa | 0 mm | - | 163 W/m² | - |
| 1777494164 | 14.44° C | 62% | 1011.1 hPa | 0 mm | - | 135 W/m² | - |
| 1777493862 | 15° C | 64% | 1011.2 hPa | 0 mm | - | 137 W/m² | - |
| 1777493560 | 15° C | 64% | 1011 hPa | 0 mm | - | 195 W/m² | - |
| 1777493257 | 15° C | 63% | 1010.9 hPa | 0 mm | - | 229 W/m² | - |
| 1777492953 | 15° C | 64% | 1010.9 hPa | 0 mm | - | 241 W/m² | - |
| 1777492651 | 15° C | 64% | 1010.8 hPa | 0 mm | - | 224 W/m² | - |
| 1777492350 | 15° C | 62% | 1010.7 hPa | 0 mm | - | 202 W/m² | - |
| 1777492047 | 15° C | 65% | 1010.8 hPa | 0 mm | - | 160 W/m² | - |
| 1777491744 | 15° C | 71% | 1010.8 hPa | 0 mm | - | 180 W/m² | - |
| 1777491441 | 15° C | 68% | 1010.9 hPa | 0 mm | - | 143 W/m² | - |
| 1777491139 | 15° C | 68% | 1010.8 hPa | 0 mm | - | 179 W/m² | - |
| 1777490834 | 15° C | 67% | 1010.7 hPa | 0 mm | - | 129 W/m² | - |
* Rain latest hour (hover to see other rain measurements)
** Current wind speed in m/s (hover to see current wind gust speed)